Location: Calvatone
(45.1167°N, 10.4333°E)
Time: 11:40:27
(UTC+00:00)

Meteor PRIRODA - Pass Details

Date: 28 January 2023
Orbit: 474 x 489 km, 97.6° (Epoch: 25 March)

Event Time Altitude Azimuth Distance (km) Brightness Sun altitude
Rises 16:49:30 0° 161° (SSE) 2,516 7.2 -5.7°
Reaches altitude 10° 16:51:33 10° 159° (SSE) 1,641 6.2 -6.0°
Maximum altitude 16:55:03 71° 76° (ENE) 508 3.5 -6.6°
Drops below altitude 10° 16:58:35 10° 352° (N) 1,652 6.2 -7.2°
Sets 17:00:39 0° 350° (N) 2,536 7.1 -7.5°
